Hourly Data Report for May 24, 2003

SHERBROOKE A
QUEBEC

45°26'00.000" N
71°41'00.000" W
241.40 m
7028124
71610
YSC

Download Data

Hourly Data (May 2003)
Hourly Data Report for May 24, 2003
TIME
LST
Temp Definition
°C
Dew Point Definition
°C
Rel Hum Definition
%
Precip. Amount Definition
mm

Wind Dir Definition
10's deg

Wind Spd Definition
km/h
Visibility Definition
km
Stn Press Definition
kPa
Hmdx Definition


Wind Chill Definition


Weather Definition


00:00 8.6 6.3 85   7 9 15.0 99.44      
01:00 7.8 6.3 90   4 7 15.0 99.41      
02:00 7.3 6.1 92   5 7 15.0 99.40      
03:00 7.9 6.5 91   6 9 15.0 99.36      
04:00 8.1 6.7 91   6 9 15.0 99.32      
05:00 9.1 7.0 87   7 7 15.0 99.31      
06:00 9.7 7.2 84   5 11 15.0 99.31      
07:00 11.1 7.8 80   4 11 24.1 99.32     Mostly Cloudy
08:00 12.5 7.4 71   11 19 24.1 99.31     Rain
09:00 13.4 8.2 71   11 15 19.3 99.29     Rain
10:00 12.2 9.9 86   12 7 16.1 99.28     Rain
11:00 12.8 10.4 85   9 7 16.1 99.24     Rain
12:00 13.9 9.7 76   8 9 24.1 99.19     Cloudy
13:00 15.5 10.1 70   5 4 24.1 99.12     Mostly Cloudy
14:00 16.3 9.3 63   13 19 24.1 99.08     Cloudy
15:00 17.1 8.6 57   14 19 24.1 99.05     Cloudy
16:00 16.4 8.9 61   11 19 24.1 99.05     Cloudy
17:00 15.3 8.3 63   10 17 15.0 99.05      
18:00 13.7 7.9 68   9 17 15.0 99.08      
19:00 12.1 8.5 79   9 13 15.0 99.08     Rain
20:00 10.9 8.5 85   7 13 15.0 99.06     Rain
21:00 10.0 8.1 88   7 9 15.0 99.07     Rain
22:00 9.7 8.0 89   6 7 15.0 99.01     Rain
23:00 9.5 8.4 93   6 7 11.3 98.99     Rain

Notes on Data Quality.

Legend

  • E = Estimated
  • M = Missing
  • NA = Not Available*
  • [empty] = Indicates an unobserved value
Date modified: